Year,Month,Day,Hour,Minute,Value (Times are PST for insolation in W/m^2)
2011,03,27,00,00,0.00
2011,03,27,00,01,0.00
2011,03,27,00,02,0.00
2011,03,27,00,03,0.00
2011,03,27,00,04,0.00
2011,03,27,00,05,0.00
2011,03,27,00,06,0.00
2011,03,27,00,07,0.00
2011,03,27,00,08,0.00
2011,03,27,00,09,0.00
2011,03,27,00,10,0.00
2011,03,27,00,11,0.00
2011,03,27,00,12,0.00
2011,03,27,00,13,0.00
2011,03,27,00,14,0.00
2011,03,27,00,15,0.00
2011,03,27,00,16,0.00
2011,03,27,00,17,0.00
2011,03,27,00,18,0.00
2011,03,27,00,19,0.00
2011,03,27,00,20,0.00
2011,03,27,00,21,0.00
2011,03,27,00,22,0.00
2011,03,27,00,23,0.00
2011,03,27,00,24,0.00
2011,03,27,00,25,0.00
2011,03,27,00,26,0.00
2011,03,27,00,27,0.00
2011,03,27,00,28,0.00
2011,03,27,00,29,0.00
2011,03,27,00,30,0.00
2011,03,27,00,31,0.00
2011,03,27,00,32,0.00
2011,03,27,00,33,0.00
2011,03,27,00,34,0.00
2011,03,27,00,35,0.00
2011,03,27,00,36,0.00
2011,03,27,00,37,0.00
2011,03,27,00,38,0.00
2011,03,27,00,39,0.00
2011,03,27,00,40,0.00
2011,03,27,00,41,0.00
2011,03,27,00,42,0.00
2011,03,27,00,43,0.00
2011,03,27,00,44,0.00
2011,03,27,00,45,0.00
2011,03,27,00,46,0.00
2011,03,27,00,47,0.00
2011,03,27,00,48,0.00
2011,03,27,00,49,0.00
2011,03,27,00,50,0.00
2011,03,27,00,51,0.00
2011,03,27,00,52,0.00
2011,03,27,00,53,0.00
2011,03,27,00,54,0.00
2011,03,27,00,55,0.00
2011,03,27,00,56,0.00
2011,03,27,00,57,0.00
2011,03,27,00,58,0.00
2011,03,27,00,59,0.00
2011,03,27,01,00,0.00
2011,03,27,01,01,0.00
2011,03,27,01,02,0.00
2011,03,27,01,03,0.00
2011,03,27,01,04,0.00
2011,03,27,01,05,0.00
2011,03,27,01,06,0.00
2011,03,27,01,07,0.00
2011,03,27,01,08,0.00
2011,03,27,01,09,0.00
2011,03,27,01,10,0.00
2011,03,27,01,11,0.00
2011,03,27,01,12,0.00
2011,03,27,01,13,0.00
2011,03,27,01,14,0.00
2011,03,27,01,15,0.00
2011,03,27,01,16,0.00
2011,03,27,01,17,0.00
2011,03,27,01,18,0.00
2011,03,27,01,19,0.00
2011,03,27,01,20,0.00
2011,03,27,01,21,0.00
2011,03,27,01,22,0.00
2011,03,27,01,23,0.00
2011,03,27,01,24,0.00
2011,03,27,01,25,0.00
2011,03,27,01,26,0.00
2011,03,27,01,27,0.00
2011,03,27,01,28,0.00
2011,03,27,01,29,0.00
2011,03,27,01,30,0.00
2011,03,27,01,31,0.00
2011,03,27,01,32,0.00
2011,03,27,01,33,0.00
2011,03,27,01,34,0.00
2011,03,27,01,35,0.00
2011,03,27,01,36,0.00
2011,03,27,01,37,0.00
2011,03,27,01,38,0.00
2011,03,27,01,39,0.00
2011,03,27,01,40,0.00
2011,03,27,01,41,0.00
2011,03,27,01,42,0.00
2011,03,27,01,43,0.00
2011,03,27,01,44,0.00
2011,03,27,01,45,0.00
2011,03,27,01,46,0.00
2011,03,27,01,47,0.00
2011,03,27,01,48,0.00
2011,03,27,01,49,0.00
2011,03,27,01,50,0.00
2011,03,27,01,51,0.00
2011,03,27,01,52,0.00
2011,03,27,01,53,0.00
2011,03,27,01,54,0.00
2011,03,27,01,55,0.00
2011,03,27,01,56,0.00
2011,03,27,01,57,0.00
2011,03,27,01,58,0.00
2011,03,27,01,59,0.00
2011,03,27,02,00,0.00
2011,03,27,02,01,0.00
2011,03,27,02,02,0.00
2011,03,27,02,03,0.00
2011,03,27,02,04,0.00
2011,03,27,02,05,0.00
2011,03,27,02,06,0.00
2011,03,27,02,07,0.00
2011,03,27,02,08,0.00
2011,03,27,02,09,0.00
2011,03,27,02,10,0.00
2011,03,27,02,11,0.00
2011,03,27,02,12,0.00
2011,03,27,02,13,0.00
2011,03,27,02,14,0.00
2011,03,27,02,15,0.00
2011,03,27,02,16,0.00
2011,03,27,02,17,0.00
2011,03,27,02,18,0.00
2011,03,27,02,19,0.00
2011,03,27,02,20,0.00
2011,03,27,02,21,0.00
2011,03,27,02,22,0.00
2011,03,27,02,23,0.00
2011,03,27,02,24,0.00
2011,03,27,02,25,0.00
2011,03,27,02,26,0.00
2011,03,27,02,27,0.00
2011,03,27,02,28,0.00
2011,03,27,02,29,0.00
2011,03,27,02,30,0.00
2011,03,27,02,31,0.00
2011,03,27,02,32,0.00
2011,03,27,02,33,0.00
2011,03,27,02,34,0.00
2011,03,27,02,35,0.00
2011,03,27,02,36,0.00
2011,03,27,02,37,0.00
2011,03,27,02,38,0.00
2011,03,27,02,39,0.00
2011,03,27,02,40,0.00
2011,03,27,02,41,0.00
2011,03,27,02,42,0.00
2011,03,27,02,43,0.00
2011,03,27,02,44,0.00
2011,03,27,02,45,0.00
2011,03,27,02,46,0.00
2011,03,27,02,47,0.00
2011,03,27,02,48,0.00
2011,03,27,02,49,0.00
2011,03,27,02,50,0.00
2011,03,27,02,51,0.00
2011,03,27,02,52,0.00
2011,03,27,02,53,0.00
2011,03,27,02,54,0.00
2011,03,27,02,55,0.00
2011,03,27,02,56,0.00
2011,03,27,02,57,0.00
2011,03,27,02,58,0.00
2011,03,27,02,59,0.00
2011,03,27,03,00,0.00
2011,03,27,03,01,0.00
2011,03,27,03,02,0.00
2011,03,27,03,03,0.00
2011,03,27,03,04,0.00
2011,03,27,03,05,0.00
2011,03,27,03,06,0.00
2011,03,27,03,07,0.00
2011,03,27,03,08,0.00
2011,03,27,03,09,0.00
2011,03,27,03,10,0.00
2011,03,27,03,11,0.00
2011,03,27,03,12,0.00
2011,03,27,03,13,0.00
2011,03,27,03,14,0.00
2011,03,27,03,15,0.00
2011,03,27,03,16,0.00
2011,03,27,03,17,0.00
2011,03,27,03,18,0.00
2011,03,27,03,19,0.00
2011,03,27,03,20,0.00
2011,03,27,03,21,0.00
2011,03,27,03,22,0.00
2011,03,27,03,23,0.00
2011,03,27,03,24,0.00
2011,03,27,03,25,0.00
2011,03,27,03,26,0.00
2011,03,27,03,27,0.00
2011,03,27,03,28,0.00
2011,03,27,03,29,0.00
2011,03,27,03,30,0.00
2011,03,27,03,31,0.00
2011,03,27,03,32,0.00
2011,03,27,03,33,0.00
2011,03,27,03,34,0.00
2011,03,27,03,35,0.00
2011,03,27,03,36,0.00
2011,03,27,03,37,0.00
2011,03,27,03,38,0.00
2011,03,27,03,39,0.00
2011,03,27,03,40,0.00
2011,03,27,03,41,0.00
2011,03,27,03,42,0.00
2011,03,27,03,43,0.00
2011,03,27,03,44,0.00
2011,03,27,03,45,0.00
2011,03,27,03,46,0.00
2011,03,27,03,47,0.00
2011,03,27,03,48,0.00
2011,03,27,03,49,0.00
2011,03,27,03,50,0.00
2011,03,27,03,51,0.00
2011,03,27,03,52,0.00
2011,03,27,03,53,0.00
2011,03,27,03,54,0.00
2011,03,27,03,55,0.00
2011,03,27,03,56,0.00
2011,03,27,03,57,0.00
2011,03,27,03,58,0.00
2011,03,27,03,59,0.00
2011,03,27,04,00,0.00
2011,03,27,04,01,0.00
2011,03,27,04,02,0.00
2011,03,27,04,03,0.00
2011,03,27,04,04,0.00
2011,03,27,04,05,0.00
2011,03,27,04,06,0.00
2011,03,27,04,07,0.00
2011,03,27,04,08,0.00
2011,03,27,04,09,0.00
2011,03,27,04,10,0.00
2011,03,27,04,11,0.00
2011,03,27,04,12,0.00
2011,03,27,04,13,0.00
2011,03,27,04,14,0.00
2011,03,27,04,15,0.00
2011,03,27,04,16,0.00
2011,03,27,04,17,0.00
2011,03,27,04,18,0.00
2011,03,27,04,19,0.00
2011,03,27,04,20,0.00
2011,03,27,04,21,0.00
2011,03,27,04,22,0.00
2011,03,27,04,23,0.00
2011,03,27,04,24,0.00
2011,03,27,04,25,0.00
2011,03,27,04,26,0.00
2011,03,27,04,27,0.00
2011,03,27,04,28,0.00
2011,03,27,04,29,0.00
2011,03,27,04,30,0.00
2011,03,27,04,31,0.00
2011,03,27,04,32,0.00
2011,03,27,04,33,0.00
2011,03,27,04,34,0.00
2011,03,27,04,35,0.00
2011,03,27,04,36,0.00
2011,03,27,04,37,0.00
2011,03,27,04,38,0.00
2011,03,27,04,39,0.00
2011,03,27,04,40,0.00
2011,03,27,04,41,0.00
2011,03,27,04,42,0.00
2011,03,27,04,43,0.00
2011,03,27,04,44,0.00
2011,03,27,04,45,0.00
2011,03,27,04,46,0.00
2011,03,27,04,47,0.00
2011,03,27,04,48,0.00
2011,03,27,04,49,0.00
2011,03,27,04,50,0.00
2011,03,27,04,51,0.00
2011,03,27,04,52,0.00
2011,03,27,04,53,0.00
2011,03,27,04,54,0.00
2011,03,27,04,55,0.00
2011,03,27,04,56,0.00
2011,03,27,04,57,0.00
2011,03,27,04,58,0.00
2011,03,27,04,59,0.00
2011,03,27,05,00,0.00
2011,03,27,05,01,0.00
2011,03,27,05,02,0.00
2011,03,27,05,03,0.00
2011,03,27,05,04,0.00
2011,03,27,05,05,0.00
2011,03,27,05,06,0.00
2011,03,27,05,07,0.00
2011,03,27,05,08,0.00
2011,03,27,05,09,0.00
2011,03,27,05,10,0.00
2011,03,27,05,11,0.00
2011,03,27,05,12,0.00
2011,03,27,05,13,0.00
2011,03,27,05,14,0.00
2011,03,27,05,15,0.00
2011,03,27,05,16,0.00
2011,03,27,05,17,0.00
2011,03,27,05,18,0.00
2011,03,27,05,19,0.00
2011,03,27,05,20,0.00
2011,03,27,05,21,0.00
2011,03,27,05,22,0.00
2011,03,27,05,23,0.00
2011,03,27,05,24,0.00
2011,03,27,05,25,0.00
2011,03,27,05,26,0.00
2011,03,27,05,27,0.00
2011,03,27,05,28,0.00
2011,03,27,05,29,0.00
2011,03,27,05,30,0.00
2011,03,27,05,31,0.00
2011,03,27,05,32,0.00
2011,03,27,05,33,0.00
2011,03,27,05,34,0.00
2011,03,27,05,35,0.00
2011,03,27,05,36,0.00
2011,03,27,05,37,0.00
2011,03,27,05,38,0.00
2011,03,27,05,39,0.00
2011,03,27,05,40,0.00
2011,03,27,05,41,0.00
2011,03,27,05,42,0.00
2011,03,27,05,43,0.00
2011,03,27,05,44,0.00
2011,03,27,05,45,0.00
2011,03,27,05,46,0.00
2011,03,27,05,47,0.00
2011,03,27,05,48,0.00
2011,03,27,05,49,0.00
2011,03,27,05,50,0.00
2011,03,27,05,51,0.00
2011,03,27,05,52,0.00
2011,03,27,05,53,0.00
2011,03,27,05,54,0.00
2011,03,27,05,55,0.00
2011,03,27,05,56,0.00
2011,03,27,05,57,0.00
2011,03,27,05,58,0.00
2011,03,27,05,59,0.00
2011,03,27,06,00,0.00
2011,03,27,06,01,0.00
2011,03,27,06,02,0.00
2011,03,27,06,03,0.00
2011,03,27,06,04,0.00
2011,03,27,06,05,0.00
2011,03,27,06,06,0.00
2011,03,27,06,07,0.00
2011,03,27,06,08,0.00
2011,03,27,06,09,0.00
2011,03,27,06,10,0.00
2011,03,27,06,11,0.00
2011,03,27,06,12,0.00
2011,03,27,06,13,0.00
2011,03,27,06,14,0.00
2011,03,27,06,15,0.00
2011,03,27,06,16,0.00
2011,03,27,06,17,0.00
2011,03,27,06,18,0.00
2011,03,27,06,19,0.00
2011,03,27,06,20,0.00
2011,03,27,06,21,0.00
2011,03,27,06,22,0.00
2011,03,27,06,23,0.00
2011,03,27,06,24,0.00
2011,03,27,06,25,0.00
2011,03,27,06,26,0.00
2011,03,27,06,27,0.00
2011,03,27,06,28,0.00
2011,03,27,06,29,0.00
2011,03,27,06,30,0.00
2011,03,27,06,31,0.00
2011,03,27,06,32,0.00
2011,03,27,06,33,0.00
2011,03,27,06,34,0.00
2011,03,27,06,35,0.00
2011,03,27,06,36,0.00
2011,03,27,06,37,0.00
2011,03,27,06,38,0.00
2011,03,27,06,39,0.00
2011,03,27,06,40,0.00
2011,03,27,06,41,0.00
2011,03,27,06,42,0.00
2011,03,27,06,43,0.00
2011,03,27,06,44,0.00
2011,03,27,06,45,0.00
2011,03,27,06,46,0.00
2011,03,27,06,47,0.00
2011,03,27,06,48,0.00
2011,03,27,06,49,0.00
2011,03,27,06,50,0.00
2011,03,27,06,51,0.00
2011,03,27,06,52,0.00
2011,03,27,06,53,0.00
2011,03,27,06,54,0.00
2011,03,27,06,55,0.00
2011,03,27,06,56,0.00
2011,03,27,06,57,0.00
2011,03,27,06,58,0.00
2011,03,27,06,59,0.00
2011,03,27,07,00,0.00
2011,03,27,07,01,4.80
2011,03,27,07,02,5.50
2011,03,27,07,03,7.80
2011,03,27,07,04,9.00
2011,03,27,07,05,9.00
2011,03,27,07,06,9.00
2011,03,27,07,07,9.00
2011,03,27,07,08,9.00
2011,03,27,07,09,9.00
2011,03,27,07,10,9.00
2011,03,27,07,11,10.50
2011,03,27,07,12,11.00
2011,03,27,07,13,12.30
2011,03,27,07,14,14.00
2011,03,27,07,15,14.00
2011,03,27,07,16,15.20
2011,03,27,07,17,17.40
2011,03,27,07,18,18.00
2011,03,27,07,19,19.30
2011,03,27,07,20,21.00
2011,03,27,07,21,21.00
2011,03,27,07,22,19.80
2011,03,27,07,23,19.00
2011,03,27,07,24,20.80
2011,03,27,07,25,21.00
2011,03,27,07,26,21.00
2011,03,27,07,27,21.00
2011,03,27,07,28,19.70
2011,03,27,07,29,19.00
2011,03,27,07,30,22.80
2011,03,27,07,31,27.80
2011,03,27,07,32,37.60
2011,03,27,07,33,44.00
2011,03,27,07,34,47.90
2011,03,27,07,35,47.50
2011,03,27,07,36,43.40
2011,03,27,07,37,34.60
2011,03,27,07,38,33.00
2011,03,27,07,39,33.00
2011,03,27,07,40,34.30
2011,03,27,07,41,35.00
2011,03,27,07,42,37.10
2011,03,27,07,43,39.80
2011,03,27,07,44,41.30
2011,03,27,07,45,39.50
2011,03,27,07,46,39.00
2011,03,27,07,47,39.80
2011,03,27,07,48,40.00
2011,03,27,07,49,40.50
2011,03,27,07,50,42.00
2011,03,27,07,51,42.00
2011,03,27,07,52,42.00
2011,03,27,07,53,43.70
2011,03,27,07,54,44.00
2011,03,27,07,55,44.00
2011,03,27,07,56,44.90
2011,03,27,07,57,46.00
2011,03,27,07,58,46.70
2011,03,27,07,59,47.00
2011,03,27,08,00,47.00
2011,03,27,08,01,47.00
2011,03,27,08,02,47.90
2011,03,27,08,03,50.20
2011,03,27,08,04,52.50
2011,03,27,08,05,53.00
2011,03,27,08,06,53.00
2011,03,27,08,07,53.30
2011,03,27,08,08,54.00
2011,03,27,08,09,54.00
2011,03,27,08,10,54.00
2011,03,27,08,11,54.00
2011,03,27,08,12,54.40
2011,03,27,08,13,56.00
2011,03,27,08,14,56.00
2011,03,27,08,15,56.00
2011,03,27,08,16,56.00
2011,03,27,08,17,56.00
2011,03,27,08,18,56.00
2011,03,27,08,19,55.30
2011,03,27,08,20,54.00
2011,03,27,08,21,54.00
2011,03,27,08,22,54.00
2011,03,27,08,23,53.10
2011,03,27,08,24,52.50
2011,03,27,08,25,51.00
2011,03,27,08,26,49.90
2011,03,27,08,27,47.60
2011,03,27,08,28,46.20
2011,03,27,08,29,44.10
2011,03,27,08,30,43.50
2011,03,27,08,31,41.20
2011,03,27,08,32,39.50
2011,03,27,08,33,39.00
2011,03,27,08,34,37.30
2011,03,27,08,35,35.00
2011,03,27,08,36,34.40
2011,03,27,08,37,32.60
2011,03,27,08,38,32.00
2011,03,27,08,39,32.00
2011,03,27,08,40,32.00
2011,03,27,08,41,32.00
2011,03,27,08,42,32.00
2011,03,27,08,43,32.50
2011,03,27,08,44,33.00
2011,03,27,08,45,33.00
2011,03,27,08,46,33.00
2011,03,27,08,47,33.30
2011,03,27,08,48,35.70
2011,03,27,08,49,37.00
2011,03,27,08,50,38.20
2011,03,27,08,51,39.80
2011,03,27,08,52,41.80
2011,03,27,08,53,42.40
2011,03,27,08,54,44.70
2011,03,27,08,55,46.50
2011,03,27,08,56,48.30
2011,03,27,08,57,50.60
2011,03,27,08,58,52.90
2011,03,27,08,59,54.80
2011,03,27,09,00,58.70
2011,03,27,09,01,61.50
2011,03,27,09,02,64.40
2011,03,27,09,03,68.20
2011,03,27,09,04,70.30
2011,03,27,09,05,74.50
2011,03,27,09,06,77.20
2011,03,27,09,07,81.20
2011,03,27,09,08,83.70
2011,03,27,09,09,87.20
2011,03,27,09,10,91.40
2011,03,27,09,11,95.50
2011,03,27,09,12,98.30
2011,03,27,09,13,102.80
2011,03,27,09,14,107.80
2011,03,27,09,15,110.70
2011,03,27,09,16,114.20
2011,03,27,09,17,118.90
2011,03,27,09,18,121.90
2011,03,27,09,19,124.20
2011,03,27,09,20,127.10
2011,03,27,09,21,129.80
2011,03,27,09,22,134.10
2011,03,27,09,23,135.60
2011,03,27,09,24,137.90
2011,03,27,09,25,140.20
2011,03,27,09,26,141.80
2011,03,27,09,27,143.90
2011,03,27,09,28,146.30
2011,03,27,09,29,148.90
2011,03,27,09,30,152.00
2011,03,27,09,31,154.30
2011,03,27,09,32,157.20
2011,03,27,09,33,159.90
2011,03,27,09,34,161.00
2011,03,27,09,35,166.40
2011,03,27,09,36,171.50
2011,03,27,09,37,175.30
2011,03,27,09,38,181.20
2011,03,27,09,39,185.10
2011,03,27,09,40,192.60
2011,03,27,09,41,192.30
2011,03,27,09,42,183.30
2011,03,27,09,43,174.40
2011,03,27,09,44,184.60
2011,03,27,09,45,193.40
2011,03,27,09,46,202.20
2011,03,27,09,47,215.40
2011,03,27,09,48,229.70
2011,03,27,09,49,240.30
2011,03,27,09,50,249.70
2011,03,27,09,51,246.20
2011,03,27,09,52,272.20
2011,03,27,09,53,262.50
2011,03,27,09,54,257.80
2011,03,27,09,55,275.30
2011,03,27,09,56,278.80
2011,03,27,09,57,272.90
2011,03,27,09,58,261.40
2011,03,27,09,59,255.10
2011,03,27,10,00,257.40
2011,03,27,10,01,255.60
2011,03,27,10,02,257.50
2011,03,27,10,03,257.80
2011,03,27,10,04,241.20
2011,03,27,10,05,251.70
2011,03,27,10,06,228.90
2011,03,27,10,07,207.50
2011,03,27,10,08,197.40
2011,03,27,10,09,189.70
2011,03,27,10,10,188.60
2011,03,27,10,11,189.00
2011,03,27,10,12,184.80
2011,03,27,10,13,180.00
2011,03,27,10,14,179.00
2011,03,27,10,15,179.00
2011,03,27,10,16,177.20
2011,03,27,10,17,174.00
2011,03,27,10,18,163.90
2011,03,27,10,19,149.00
2011,03,27,10,20,146.10
2011,03,27,10,21,147.20
2011,03,27,10,22,140.90
2011,03,27,10,23,141.50
2011,03,27,10,24,148.60
2011,03,27,10,25,156.60
2011,03,27,10,26,158.20
2011,03,27,10,27,155.20
2011,03,27,10,28,140.30
2011,03,27,10,29,136.80
2011,03,27,10,30,144.10
2011,03,27,10,31,153.90
2011,03,27,10,32,142.60
2011,03,27,10,33,149.50
2011,03,27,10,34,150.20
2011,03,27,10,35,149.00
2011,03,27,10,36,153.60
2011,03,27,10,37,153.60
2011,03,27,10,38,169.10
2011,03,27,10,39,179.50
2011,03,27,10,40,183.20
2011,03,27,10,41,198.90
2011,03,27,10,42,196.50
2011,03,27,10,43,198.10
2011,03,27,10,44,213.00
2011,03,27,10,45,211.70
2011,03,27,10,46,211.20
2011,03,27,10,47,221.80
2011,03,27,10,48,235.80
2011,03,27,10,49,239.00
2011,03,27,10,50,247.60
2011,03,27,10,51,262.00
2011,03,27,10,52,256.50
2011,03,27,10,53,248.00
2011,03,27,10,54,246.00
2011,03,27,10,55,255.80
2011,03,27,10,56,251.40
2011,03,27,10,57,262.20
2011,03,27,10,58,309.50
2011,03,27,10,59,291.60
2011,03,27,11,00,264.20
2011,03,27,11,01,273.60
2011,03,27,11,02,283.40
2011,03,27,11,03,311.60
2011,03,27,11,04,325.80
2011,03,27,11,05,366.40
2011,03,27,11,06,368.20
2011,03,27,11,07,361.90
2011,03,27,11,08,396.00
2011,03,27,11,09,373.30
2011,03,27,11,10,408.40
2011,03,27,11,11,405.20
2011,03,27,11,12,386.40
2011,03,27,11,13,381.30
2011,03,27,11,14,433.80
2011,03,27,11,15,478.00
2011,03,27,11,16,405.40
2011,03,27,11,17,350.10
2011,03,27,11,18,356.00
2011,03,27,11,19,296.40
2011,03,27,11,20,263.50
2011,03,27,11,21,284.60
2011,03,27,11,22,301.20
2011,03,27,11,23,319.20
2011,03,27,11,24,321.50
2011,03,27,11,25,320.00
2011,03,27,11,26,337.70
2011,03,27,11,27,362.50
2011,03,27,11,28,380.80
2011,03,27,11,29,330.30
2011,03,27,11,30,304.00
2011,03,27,11,31,302.20
2011,03,27,11,32,285.70
2011,03,27,11,33,271.80
2011,03,27,11,34,270.00
2011,03,27,11,35,268.40
2011,03,27,11,36,266.00
2011,03,27,11,37,250.50
2011,03,27,11,38,244.90
2011,03,27,11,39,239.90
2011,03,27,11,40,241.00
2011,03,27,11,41,242.50
2011,03,27,11,42,242.10
2011,03,27,11,43,249.60
2011,03,27,11,44,246.60
2011,03,27,11,45,246.80
2011,03,27,11,46,247.40
2011,03,27,11,47,253.20
2011,03,27,11,48,288.50
2011,03,27,11,49,336.40
2011,03,27,11,50,372.00
2011,03,27,11,51,396.40
2011,03,27,11,52,390.40
2011,03,27,11,53,433.50
2011,03,27,11,54,419.60
2011,03,27,11,55,388.00
2011,03,27,11,56,399.60
2011,03,27,11,57,409.60
2011,03,27,11,58,374.30
2011,03,27,11,59,393.20
2011,03,27,12,00,357.40
2011,03,27,12,01,323.60
2011,03,27,12,02,329.60
2011,03,27,12,03,337.60
2011,03,27,12,04,333.80
2011,03,27,12,05,337.10
2011,03,27,12,06,335.20
2011,03,27,12,07,326.10
2011,03,27,12,08,346.10
2011,03,27,12,09,350.60
2011,03,27,12,10,344.30
2011,03,27,12,11,332.60
2011,03,27,12,12,355.20
2011,03,27,12,13,344.40
2011,03,27,12,14,333.00
2011,03,27,12,15,305.60
2011,03,27,12,16,294.70
2011,03,27,12,17,315.20
2011,03,27,12,18,356.80
2011,03,27,12,19,358.50
2011,03,27,12,20,375.00
2011,03,27,12,21,381.60
2011,03,27,12,22,361.60
2011,03,27,12,23,333.40
2011,03,27,12,24,301.20
2011,03,27,12,25,291.50
2011,03,27,12,26,331.50
2011,03,27,12,27,391.10
2011,03,27,12,28,344.80
2011,03,27,12,29,368.80
2011,03,27,12,30,337.20
2011,03,27,12,31,350.20
2011,03,27,12,32,381.00
2011,03,27,12,33,396.00
2011,03,27,12,34,511.40
2011,03,27,12,35,481.30
2011,03,27,12,36,409.50
2011,03,27,12,37,362.20
2011,03,27,12,38,363.10
2011,03,27,12,39,389.90
2011,03,27,12,40,409.20
2011,03,27,12,41,347.70
2011,03,27,12,42,348.50
2011,03,27,12,43,353.10
2011,03,27,12,44,349.50
2011,03,27,12,45,334.50
2011,03,27,12,46,305.80
2011,03,27,12,47,294.90
2011,03,27,12,48,315.20
2011,03,27,12,49,341.40
2011,03,27,12,50,364.00
2011,03,27,12,51,343.40
2011,03,27,12,52,337.70
2011,03,27,12,53,321.40
2011,03,27,12,54,315.00
2011,03,27,12,55,333.90
2011,03,27,12,56,366.60
2011,03,27,12,57,347.50
2011,03,27,12,58,330.20
2011,03,27,12,59,330.10
2011,03,27,13,00,305.40
2011,03,27,13,01,297.00
2011,03,27,13,02,297.00
2011,03,27,13,03,303.80
2011,03,27,13,04,312.90
2011,03,27,13,05,316.00
2011,03,27,13,06,308.40
2011,03,27,13,07,298.50
2011,03,27,13,08,283.60
2011,03,27,13,09,284.20
2011,03,27,13,10,284.90
2011,03,27,13,11,281.20
2011,03,27,13,12,271.90
2011,03,27,13,13,259.00
2011,03,27,13,14,251.10
2011,03,27,13,15,259.60
2011,03,27,13,16,294.10
2011,03,27,13,17,281.50
2011,03,27,13,18,259.00
2011,03,27,13,19,251.60
2011,03,27,13,20,260.10
2011,03,27,13,21,258.90
2011,03,27,13,22,247.90
2011,03,27,13,23,227.80
2011,03,27,13,24,224.60
2011,03,27,13,25,229.60
2011,03,27,13,26,241.20
2011,03,27,13,27,271.50
2011,03,27,13,28,277.40
2011,03,27,13,29,257.70
2011,03,27,13,30,264.60
2011,03,27,13,31,253.70
2011,03,27,13,32,227.00
2011,03,27,13,33,221.20
2011,03,27,13,34,250.80
2011,03,27,13,35,265.80
2011,03,27,13,36,277.10
2011,03,27,13,37,279.80
2011,03,27,13,38,286.70
2011,03,27,13,39,300.50
2011,03,27,13,40,297.20
2011,03,27,13,41,317.00
2011,03,27,13,42,341.90
2011,03,27,13,43,333.20
2011,03,27,13,44,289.20
2011,03,27,13,45,278.30
2011,03,27,13,46,277.20
2011,03,27,13,47,280.30
2011,03,27,13,48,289.50
2011,03,27,13,49,285.70
2011,03,27,13,50,310.10
2011,03,27,13,51,310.90
2011,03,27,13,52,309.80
2011,03,27,13,53,331.80
2011,03,27,13,54,312.70
2011,03,27,13,55,312.50
2011,03,27,13,56,347.00
2011,03,27,13,57,373.70
2011,03,27,13,58,384.80
2011,03,27,13,59,400.40
2011,03,27,14,00,378.90
2011,03,27,14,01,367.30
2011,03,27,14,02,388.20
2011,03,27,14,03,376.70
2011,03,27,14,04,427.80
2011,03,27,14,05,442.40
2011,03,27,14,06,463.50
2011,03,27,14,07,449.40
2011,03,27,14,08,407.00
2011,03,27,14,09,396.50
2011,03,27,14,10,392.20
2011,03,27,14,11,375.80
2011,03,27,14,12,366.20
2011,03,27,14,13,344.80
2011,03,27,14,14,421.00
2011,03,27,14,15,360.00
2011,03,27,14,16,360.00
2011,03,27,14,17,356.40
2011,03,27,14,18,358.30
2011,03,27,14,19,404.00
2011,03,27,14,20,336.10
2011,03,27,14,21,296.40
2011,03,27,14,22,304.60
2011,03,27,14,23,294.90
2011,03,27,14,24,282.20
2011,03,27,14,25,348.00
2011,03,27,14,26,330.10
2011,03,27,14,27,354.00
2011,03,27,14,28,361.10
2011,03,27,14,29,322.50
2011,03,27,14,30,300.60
2011,03,27,14,31,303.50
2011,03,27,14,32,372.60
2011,03,27,14,33,348.20
2011,03,27,14,34,224.40
2011,03,27,14,35,222.10
2011,03,27,14,36,250.90
2011,03,27,14,37,258.80
2011,03,27,14,38,223.80
2011,03,27,14,39,217.50
2011,03,27,14,40,219.60
2011,03,27,14,41,196.30
2011,03,27,14,42,179.10
2011,03,27,14,43,175.60
2011,03,27,14,44,182.60
2011,03,27,14,45,179.60
2011,03,27,14,46,181.00
2011,03,27,14,47,216.80
2011,03,27,14,48,278.20
2011,03,27,14,49,285.70
2011,03,27,14,50,232.40
2011,03,27,14,51,236.90
2011,03,27,14,52,253.00
2011,03,27,14,53,260.20
2011,03,27,14,54,255.90
2011,03,27,14,55,272.30
2011,03,27,14,56,336.00
2011,03,27,14,57,305.30
2011,03,27,14,58,308.90
2011,03,27,14,59,326.00
2011,03,27,15,00,331.50
2011,03,27,15,01,316.90
2011,03,27,15,02,298.60
2011,03,27,15,03,279.40
2011,03,27,15,04,264.50
2011,03,27,15,05,258.70
2011,03,27,15,06,259.50
2011,03,27,15,07,262.10
2011,03,27,15,08,266.20
2011,03,27,15,09,270.30
2011,03,27,15,10,271.60
2011,03,27,15,11,276.50
2011,03,27,15,12,273.30
2011,03,27,15,13,275.50
2011,03,27,15,14,300.10
2011,03,27,15,15,362.40
2011,03,27,15,16,399.00
2011,03,27,15,17,447.10
2011,03,27,15,18,454.60
2011,03,27,15,19,360.90
2011,03,27,15,20,364.90
2011,03,27,15,21,376.80
2011,03,27,15,22,373.20
2011,03,27,15,23,350.00
2011,03,27,15,24,494.50
2011,03,27,15,25,518.80
2011,03,27,15,26,450.50
2011,03,27,15,27,496.40
2011,03,27,15,28,482.00
2011,03,27,15,29,405.70
2011,03,27,15,30,313.20
2011,03,27,15,31,322.00
2011,03,27,15,32,324.10
2011,03,27,15,33,322.30
2011,03,27,15,34,319.00
2011,03,27,15,35,269.00
2011,03,27,15,36,240.30
2011,03,27,15,37,241.70
2011,03,27,15,38,262.90
2011,03,27,15,39,233.90
2011,03,27,15,40,244.50
2011,03,27,15,41,259.80
2011,03,27,15,42,283.00
2011,03,27,15,43,297.60
2011,03,27,15,44,325.70
2011,03,27,15,45,322.00
2011,03,27,15,46,307.90
2011,03,27,15,47,329.20
2011,03,27,15,48,336.00
2011,03,27,15,49,336.00
2011,03,27,15,50,421.40
2011,03,27,15,51,580.00
2011,03,27,15,52,455.20
2011,03,27,15,53,317.70
2011,03,27,15,54,303.70
2011,03,27,15,55,303.10
2011,03,27,15,56,288.90
2011,03,27,15,57,288.50
2011,03,27,15,58,303.60
2011,03,27,15,59,321.60
2011,03,27,16,00,350.90
2011,03,27,16,01,327.90
2011,03,27,16,02,318.20
2011,03,27,16,03,304.70
2011,03,27,16,04,304.70
2011,03,27,16,05,300.00
2011,03,27,16,06,296.60
2011,03,27,16,07,283.00
2011,03,27,16,08,286.60
2011,03,27,16,09,292.00
2011,03,27,16,10,280.20
2011,03,27,16,11,262.40
2011,03,27,16,12,265.20
2011,03,27,16,13,272.50
2011,03,27,16,14,275.80
2011,03,27,16,15,285.20
2011,03,27,16,16,288.50
2011,03,27,16,17,322.90
2011,03,27,16,18,283.40
2011,03,27,16,19,310.20
2011,03,27,16,20,310.20
2011,03,27,16,21,276.00
2011,03,27,16,22,450.00
2011,03,27,16,23,501.80
2011,03,27,16,24,371.40
2011,03,27,16,25,341.70
2011,03,27,16,26,378.00
2011,03,27,16,27,378.00
2011,03,27,16,28,378.00
2011,03,27,16,29,378.40
2011,03,27,16,30,398.40
2011,03,27,16,31,432.40
2011,03,27,16,32,347.50
2011,03,27,16,33,328.70
2011,03,27,16,34,274.80
2011,03,27,16,35,258.00
2011,03,27,16,36,279.80
2011,03,27,16,37,345.00
2011,03,27,16,38,309.50
2011,03,27,16,39,274.00
2011,03,27,16,40,274.00
2011,03,27,16,41,277.50
2011,03,27,16,42,292.40
2011,03,27,16,43,246.00
2011,03,27,16,44,246.00
2011,03,27,16,45,236.20
2011,03,27,16,46,239.60
2011,03,27,16,47,219.70
2011,03,27,16,48,206.30
2011,03,27,16,49,174.50
2011,03,27,16,50,178.30
2011,03,27,16,51,210.20
2011,03,27,16,52,185.60
2011,03,27,16,53,178.10
2011,03,27,16,54,175.40
2011,03,27,16,55,181.70
2011,03,27,16,56,223.00
2011,03,27,16,57,237.00
2011,03,27,16,58,368.80
2011,03,27,16,59,434.50
2011,03,27,17,00,386.90
2011,03,27,17,01,421.90
2011,03,27,17,02,436.60
2011,03,27,17,03,405.20
2011,03,27,17,04,433.10
2011,03,27,17,05,435.60
2011,03,27,17,06,417.30
2011,03,27,17,07,396.00
2011,03,27,17,08,421.10
2011,03,27,17,09,432.20
2011,03,27,17,10,417.10
2011,03,27,17,11,265.00
2011,03,27,17,12,320.00
2011,03,27,17,13,425.70
2011,03,27,17,14,424.50
2011,03,27,17,15,412.40
2011,03,27,17,16,402.60